Date,TemperatureHighF,TemperatureAvgF,TemperatureLowF,DewpointHighF,DewpointAvgF,DewpointLowF,HumidityHigh,HumidityAvg,HumidityLow,PressureMaxIn,PressureMinIn,WindSpeedMaxMPH,WindSpeedAvgMPH,GustSpeedMaxMPH,PrecipitationSumIn
2013-1-1,88.4,78.1,67.0,70.7,64.5,58.3,84,64,39,30.06,29.88,22,6,28,0.00
2013-1-2,84.8,76.9,72.0,69.3,63.6,55.2,78,64,43,29.98,29.90,22,5,28,0.00
2013-1-3,83.0,76.1,70.1,70.5,62.3,53.8,76,63,51,29.99,29.90,27,6,32,0.00
2013-1-4,85.3,76.9,74.6,62.8,61.1,58.8,64,58,46,30.02,29.91,35,12,39,0.00
2013-1-5,80.5,77.7,71.4,70.4,60.6,49.4,76,57,39,30.06,29.95,28,6,36,0.00
2013-1-6,77.5,71.8,67.1,65.9,56.2,51.5,68,58,44,30.08,30.01,12,3,17,0.00
2013-1-7,86.1,74.4,66.9,67.8,60.3,52.7,75,62,42,30.02,29.88,12,4,30,0.00
2013-1-8,85.6,76.3,68.8,67.2,64.4,50.0,73,67,46,29.93,29.83,12,3,25,0.00
2013-1-9,79.2,76.3,67.2,68.2,64.1,56.7,72,66,51,29.95,29.84,21,4,25,0.00
2013-1-10,81.4,74.5,69.3,69.1,62.3,57.5,76,66,53,29.95,29.85,17,4,23,0.00
2013-1-11,82.3,75.8,70.7,67.3,63.0,58.7,73,65,52,29.91,29.81,19,5,23,0.00
2013-1-19,81.1,73.3,65.7,61.8,55.7,47.5,71,55,31,29.97,29.83,11,5,22,0.00
2013-1-20,80.5,73.1,67.9,62.4,56.4,51.1,66,56,47,30.00,29.89,7,3,22,0.00
2013-1-21,77.5,72.7,64.7,67.5,62.2,55.8,76,70,60,30.05,29.96,7,3,13,0.00
2013-1-22,81.7,74.8,70.6,66.5,61.4,57.2,71,63,51,30.07,29.97,12,6,28,0.00
2013-1-23,82.7,74.4,70.1,67.2,62.4,57.7,76,67,49,30.02,29.95,13,4,30,0.00
2013-1-24,77.3,72.1,66.5,68.9,62.2,55.1,81,71,57,30.04,29.97,6,3,10,0.00
2013-1-25,77.5,73.7,66.0,68.4,64.9,56.7,83,74,65,30.03,29.95,6,2,10,0.00
2013-1-26,77.7,71.7,65.5,68.7,62.2,55.2,78,72,54,30.02,29.91,10,3,10,0.00
2013-1-27,80.4,72.8,65.4,67.5,61.8,54.8,78,69,48,29.98,29.87,9,3,11,0.00
2013-1-28,78.4,73.8,67.8,68.0,62.7,52.8,82,69,54,29.97,29.86,10,2,10,0.00
2013-1-29,77.0,72.7,68.2,69.2,65.3,58.3,90,78,68,30.01,29.90,10,2,13,0.10
2013-1-30,76.7,71.2,68.2,70.0,67.3,65.8,93,88,74,30.04,29.98,9,2,11,0.17
2013-1-31,78.9,76.0,65.6,70.7,67.1,60.8,85,74,63,30.05,29.95,17,3,17,0.00